TimeCDT,TemperatureF,Dew PointF,Humidity,Sea Level PressureIn,VisibilityMPH,Wind Direction,Wind SpeedMPH,Gust SpeedMPH,PrecipitationIn,Events,Conditions,WindDirDegrees,DateUTC
12:15 AM,73.4,73.4,100,29.74,10.0,SW,4.6,-,N/A,,Clear,230,2013-06-29 05:15:00
12:35 AM,73.4,73.4,100,29.74,10.0,WSW,5.8,-,N/A,,Clear,250,2013-06-29 05:35:00
12:55 AM,71.6,71.6,100,29.74,10.0,WSW,4.6,-,N/A,,Scattered Clouds,240,2013-06-29 05:55:00
1:15 AM,71.6,71.6,100,29.74,10.0,Calm,Calm,-,N/A,,Mostly Cloudy,0,2013-06-29 06:15:00
1:35 AM,71.6,71.6,100,29.74,10.0,Calm,Calm,-,N/A,,Scattered Clouds,0,2013-06-29 06:35:00
1:55 AM,71.6,71.6,100,29.74,10.0,West,4.6,-,N/A,,Scattered Clouds,260,2013-06-29 06:55:00
2:15 AM,73.4,73.4,100,29.74,10.0,WSW,4.6,-,N/A,,Overcast,240,2013-06-29 07:15:00
2:35 AM,71.6,71.6,100,29.74,7.0,Calm,Calm,-,N/A,,Overcast,0,2013-06-29 07:35:00
2:55 AM,71.6,71.6,100,29.74,10.0,West,3.5,-,N/A,,Mostly Cloudy,270,2013-06-29 07:55:00
3:15 AM,71.6,71.6,100,29.74,7.0,Calm,Calm,-,N/A,,Scattered Clouds,0,2013-06-29 08:15:00
3:35 AM,71.6,71.6,100,29.74,10.0,West,5.8,-,N/A,,Scattered Clouds,270,2013-06-29 08:35:00
3:55 AM,71.6,71.6,100,29.74,10.0,West,4.6,-,N/A,,Overcast,280,2013-06-29 08:55:00
4:15 AM,71.6,71.6,100,29.74,10.0,NW,3.5,-,N/A,Rain,Light Rain,310,2013-06-29 09:15:00
4:35 AM,71.6,71.6,100,29.74,10.0,Calm,Calm,-,N/A,,Overcast,0,2013-06-29 09:35:00
4:55 AM,71.6,71.6,100,29.74,10.0,Calm,Calm,-,N/A,,Overcast,0,2013-06-29 09:55:00
5:15 AM,71.6,71.6,100,29.74,10.0,Calm,Calm,-,N/A,,Mostly Cloudy,0,2013-06-29 10:15:00
5:35 AM,71.6,71.6,100,29.74,10.0,Calm,Calm,-,N/A,,Scattered Clouds,0,2013-06-29 10:35:00
5:55 AM,71.6,71.6,100,29.74,10.0,Calm,Calm,-,N/A,,Clear,0,2013-06-29 10:55:00
6:15 AM,71.6,71.6,100,29.74,10.0,WSW,3.5,-,N/A,,Clear,250,2013-06-29 11:15:00
6:35 AM,69.8,69.8,100,29.74,10.0,WSW,3.5,-,N/A,,Clear,250,2013-06-29 11:35:00
6:55 AM,71.6,71.6,100,29.74,10.0,Calm,Calm,-,N/A,,Clear,0,2013-06-29 11:55:00
7:15 AM,73.4,73.4,100,29.74,10.0,Calm,Calm,-,N/A,,Clear,0,2013-06-29 12:15:00
7:35 AM,73.4,73.4,100,29.74,10.0,Calm,Calm,-,N/A,,Clear,0,2013-06-29 12:35:00
7:55 AM,75.2,75.2,100,29.75,10.0,Calm,Calm,-,N/A,,Clear,0,2013-06-29 12:55:00
8:15 AM,77.0,71.6,83,29.75,10.0,Calm,Calm,-,N/A,,Clear,0,2013-06-29 13:15:00
8:35 AM,77.0,68.0,74,29.75,10.0,Calm,Calm,-,N/A,,Clear,0,2013-06-29 13:35:00
8:55 AM,78.8,68.0,69,29.75,10.0,Calm,Calm,-,N/A,,Clear,0,2013-06-29 13:55:00
9:15 AM,78.8,68.0,69,29.75,10.0,South,3.5,-,N/A,,Clear,180,2013-06-29 14:15:00
9:35 AM,80.6,62.6,54,29.75,10.0,West,3.5,-,N/A,,Clear,260,2013-06-29 14:35:00
9:55 AM,80.6,62.6,54,29.75,10.0,WSW,4.6,-,N/A,,Clear,250,2013-06-29 14:55:00
10:15 AM,82.4,60.8,48,29.75,10.0,WSW,4.6,-,N/A,,Clear,250,2013-06-29 15:15:00
10:35 AM,82.4,60.8,48,29.75,10.0,Calm,Calm,-,N/A,,Clear,0,2013-06-29 15:35:00
10:55 AM,86.0,57.2,37,29.75,10.0,WNW,6.9,-,N/A,,Scattered Clouds,300,2013-06-29 15:55:00
11:15 AM,84.2,59.0,42,29.76,10.0,WNW,5.8,-,N/A,,Scattered Clouds,300,2013-06-29 16:15:00
11:35 AM,86.0,53.6,33,29.75,10.0,WNW,9.2,17.3,N/A,,Scattered Clouds,300,2013-06-29 16:35:00
11:55 AM,86.0,53.6,33,29.75,10.0,NNW,9.2,-,N/A,,Scattered Clouds,330,2013-06-29 16:55:00
12:15 PM,86.0,55.4,35,29.75,10.0,West,10.4,-,N/A,,Mostly Cloudy,280,2013-06-29 17:15:00
12:35 PM,86.0,51.8,31,29.75,10.0,West,9.2,-,N/A,,Mostly Cloudy,280,2013-06-29 17:35:00
12:55 PM,86.0,55.4,35,29.74,10.0,NNW,11.5,-,N/A,,Scattered Clouds,340,2013-06-29 17:55:00
1:15 PM,86.0,53.6,33,29.74,10.0,WNW,9.2,-,N/A,,Scattered Clouds,290,2013-06-29 18:15:00
1:35 PM,87.8,53.6,31,29.74,10.0,WNW,11.5,19.6,N/A,,Scattered Clouds,290,2013-06-29 18:35:00
1:55 PM,86.0,53.6,33,29.74,10.0,NW,6.9,-,N/A,,Scattered Clouds,320,2013-06-29 18:55:00
2:15 PM,87.8,53.6,31,29.74,10.0,NNW,8.1,-,N/A,,Mostly Cloudy,330,2013-06-29 19:15:00
2:35 PM,86.0,53.6,33,29.73,10.0,WNW,5.8,-,N/A,,Mostly Cloudy,300,2013-06-29 19:35:00
2:55 PM,82.4,55.4,39,29.73,10.0,NW,8.1,-,N/A,,Mostly Cloudy,310,2013-06-29 19:55:00
3:15 PM,86.0,53.6,33,29.73,10.0,NW,8.1,-,N/A,,Scattered Clouds,310,2013-06-29 20:15:00
3:35 PM,86.0,53.6,33,29.72,10.0,WNW,5.8,9.2,N/A,,Scattered Clouds,290,2013-06-29 20:35:00
3:55 PM,86.0,53.6,33,29.72,10.0,NW,4.6,-,N/A,,Clear,320,2013-06-29 20:55:00
4:15 PM,86.0,53.6,33,29.71,10.0,NW,6.9,-,N/A,,Scattered Clouds,310,2013-06-29 21:15:00
4:35 PM,86.0,53.6,33,29.71,10.0,West,6.9,-,N/A,,Scattered Clouds,270,2013-06-29 21:35:00
4:55 PM,86.0,53.6,33,29.70,10.0,West,6.9,-,N/A,,Scattered Clouds,270,2013-06-29 21:55:00
5:15 PM,86.0,53.6,33,29.70,10.0,NW,5.8,-,N/A,,Scattered Clouds,320,2013-06-29 22:15:00
5:35 PM,86.0,53.6,33,29.69,10.0,NW,6.9,-,N/A,,Clear,320,2013-06-29 22:35:00
5:55 PM,86.0,53.6,33,29.70,10.0,WNW,4.6,-,N/A,,Scattered Clouds,290,2013-06-29 22:55:00
6:15 PM,86.0,53.6,33,29.70,10.0,WNW,4.6,-,N/A,,Scattered Clouds,300,2013-06-29 23:15:00
6:35 PM,84.2,55.4,37,29.70,10.0,NW,4.6,-,N/A,,Clear,310,2013-06-29 23:35:00
6:55 PM,82.4,55.4,39,29.70,10.0,NNW,4.6,-,N/A,,Clear,330,2013-06-29 23:55:00
7:15 PM,80.6,57.2,45,29.70,10.0,Calm,Calm,-,N/A,,Clear,0,2013-06-30 00:15:00
7:35 PM,80.6,57.2,45,29.70,10.0,Calm,Calm,-,N/A,,Clear,0,2013-06-30 00:35:00
7:55 PM,78.8,59.0,51,29.71,10.0,West,3.5,-,N/A,,Clear,270,2013-06-30 00:55:00
8:15 PM,78.8,59.0,51,29.72,10.0,Calm,Calm,-,N/A,,Clear,0,2013-06-30 01:15:00
8:35 PM,77.0,60.8,57,29.72,10.0,Calm,Calm,-,N/A,,Clear,0,2013-06-30 01:35:00
8:55 PM,77.0,59.0,54,29.72,10.0,Calm,Calm,-,N/A,,Scattered Clouds,0,2013-06-30 01:55:00
9:15 PM,77.0,60.8,57,29.73,10.0,Calm,Calm,-,N/A,,Mostly Cloudy,0,2013-06-30 02:15:00
9:35 PM,73.4,60.8,65,29.74,10.0,Calm,Calm,-,N/A,,Mostly Cloudy,0,2013-06-30 02:35:00
9:55 PM,73.4,62.6,69,29.74,10.0,West,3.5,-,N/A,,Mostly Cloudy,270,2013-06-30 02:55:00
10:15 PM,71.6,62.6,73,29.75,10.0,Calm,Calm,-,N/A,,Mostly Cloudy,0,2013-06-30 03:15:00
10:35 PM,73.4,62.6,69,29.75,10.0,Calm,Calm,-,N/A,,Scattered Clouds,0,2013-06-30 03:35:00
10:55 PM,71.6,62.6,73,29.75,10.0,Calm,Calm,-,N/A,,Mostly Cloudy,0,2013-06-30 03:55:00
11:15 PM,71.6,62.6,73,29.75,10.0,West,3.5,-,N/A,,Scattered Clouds,270,2013-06-30 04:15:00
11:35 PM,71.6,60.8,69,29.75,10.0,WNW,4.6,-,N/A,,Scattered Clouds,290,2013-06-30 04:35:00
11:55 PM,73.4,59.0,61,29.75,10.0,Calm,Calm,-,N/A,,Scattered Clouds,0,2013-06-30 04:55:00